Weather History for KHPN - August, 2013

Change the Weather History Date:

Saturday, August 10, 2013

  Actual Average Record
Temperature  
Mean Temperature 72 °F -  
Max Temperature 80 °F 80 °F 93 °F (2001)
Min Temperature 64 °F 63 °F 55 °F (1989)
Cooling Degree Days 7    
Growing Degree Days 22 (Base 50)    
Moisture  
Dew Point 61 °F    
Average Humidity 68    
Maximum Humidity 93    
Minimum Humidity 46    
Precipitation  
Precipitation 0.01 in - - ()
Sea Level Pressure  
Sea Level Pressure 29.96 in    
Wind  
Wind Speed 7 mph (NW)    
Max Wind Speed 13 mph    
Max Gust Speed 21 mph    
Visibility 10 miles    
Events      
Averages and records for this station are not official NWS values.
T = Trace of Precipitation, MM = Missing Value Source: NWS Daily Summary

Daily Weather History Graph

Daily Weather History Graph

Search for Another Location

Airport or City:

Trip Planner

Search our weather history database for the weather conditions in past years. The results will help you decide how hot, cold, wet, or windy it might be!

Date:

Astronomy

Aug. 10, 2013 Rise Set
Actual Time 5:59 AM EDT 7:59 PM EDT
Civil Twilight 5:29 AM EDT 8:29 PM EDT
Nautical Twilight 4:52 AM EDT 9:06 PM EDT
Astronomical Twilight 4:13 AM EDT 9:46 PM EDT
Moon 9:46 AM EDT (8/10) 9:37 PM EDT (8/10)
Length of Visible Light 15h 00m
Length of Day
14h 00m
Waxing Crescent, 14% of the Moon is Illuminated
Aug 10
Waxing Crescent
Aug 14
First Quarter
Aug 20
Full
Aug 28
Last Quarter
Sep 5
New

Hourly Weather History & Observations

Time (EDT) Temp. Heat Index Dew Point Humidity Pressure Visibility Wind Dir Wind Speed Gust Speed Precip Events Conditions
12:56 AM 72.0 °F - 70.0 °F 93% 29.86 in 8.0 mi NW 3.5 mph - N/A   Clear
1:56 AM 72.0 °F - 69.1 °F 91% 29.86 in 10.0 mi NW 8.1 mph - N/A   Clear
2:56 AM 71.1 °F - 66.0 °F 84% 29.88 in 10.0 mi NW 12.7 mph - 0.01 in   Clear
3:56 AM 69.1 °F - 64.0 °F 84% 29.89 in 10.0 mi NW 10.4 mph - N/A   Clear
4:56 AM 68.0 °F - 62.1 °F 81% 29.91 in 10.0 mi WNW 8.1 mph - N/A   Clear
5:56 AM 64.0 °F - 62.1 °F 93% 29.93 in 10.0 mi Calm Calm - N/A   Scattered Clouds
6:56 AM 64.9 °F - 63.0 °F 93% 29.96 in 9.0 mi Calm Calm - N/A   Clear
7:56 AM 70.0 °F - 62.1 °F 76% 29.96 in 10.0 mi WNW 5.8 mph - N/A   Clear
8:56 AM 72.0 °F - 63.0 °F 73% 29.97 in 10.0 mi WNW 11.5 mph - N/A   Clear
9:56 AM 73.0 °F - 62.1 °F 68% 29.97 in 10.0 mi NW 8.1 mph - N/A   Clear
10:56 AM 77.0 °F - 60.1 °F 56% 29.97 in 10.0 mi WNW 6.9 mph - N/A   Clear
11:56 AM 75.9 °F - 60.1 °F 58% 29.97 in 10.0 mi WNW 9.2 mph - N/A   Clear
12:56 PM 77.0 °F - 63.0 °F 62% 29.97 in 10.0 mi WNW 8.1 mph - N/A   Partly Cloudy
1:56 PM 78.1 °F - 60.1 °F 54% 29.96 in 10.0 mi WNW 12.7 mph - N/A   Partly Cloudy
2:56 PM 79.0 °F - 60.1 °F 52% 29.96 in 10.0 mi NW 11.5 mph 20.7 mph N/A   Scattered Clouds
3:56 PM 79.0 °F - 60.1 °F 52% 29.96 in 10.0 mi NW 11.5 mph - N/A   Mostly Cloudy
4:56 PM 80.1 °F 81.1 °F 61.0 °F 52% 29.96 in 10.0 mi WNW 12.7 mph - N/A   Mostly Cloudy
5:56 PM 79.0 °F - 57.0 °F 47% 29.96 in 10.0 mi WNW 9.2 mph - N/A   Clear
6:56 PM 78.1 °F - 55.9 °F 46% 29.97 in 10.0 mi WNW 8.1 mph - N/A   Partly Cloudy
7:56 PM 73.0 °F - 57.0 °F 57% 29.99 in 10.0 mi NW 5.8 mph - N/A   Clear
8:56 PM 70.0 °F - 57.0 °F 63% 30.01 in 10.0 mi NNW 4.6 mph - N/A   Clear
9:56 PM 66.9 °F - 55.9 °F 68% 30.04 in 10.0 mi NNW 5.8 mph - N/A   Clear
10:56 PM 68.0 °F - 54.0 °F 61% 30.04 in 10.0 mi NNW 3.5 mph - N/A   Clear
11:56 PM 64.0 °F - 55.0 °F 73% 30.05 in 10.0 mi NNW 4.6 mph - N/A   Clear